Epoch 2000 Sept. 13.0 TT = JDT 2451800.5 T 2000 Sept. 1.8789 TT MPCN q 5.306457 (2000.0) P Q z -0.000566 Peri. 304.7517 -0.8771571 -0.3894755 +/-0.000005 Node 145.0851 -0.0788480 +0.6938337 e 1.003002 Incl. 150.6086 -0.4736860 +0.6057257 From 234 observations 2001 Jan. 24-Dec. 20, mean residual 0".7.
m1 = 7.5 + 5 logΔ + 6.3 log r